When you browse on this site, cookies collect data to enhance your experience and personalize the content and advertising you see.
Visit our Privacy Policy to learn more. By continuing to use the site, you agree to this use of cookies and data.
  • în România
  • Lista ţărilor
  • Pe 7 zile
  • Temperatura apei
  • Meteo pe hartă
  • Widget-uri
  • user-avatar
    Intrare

    Meteo pe oră la Oran

    Astăzi, 24 August, Sâmbătă

    Timp Temperatura Precipitaţii Vânt Presiune Umiditate
    00:00 +26°C° 0 mm 3 m/s 752 mmHg 71%
    01:00 +25°C° 0 mm 3 m/s 752 mmHg 74%
    02:00 +25°C° 0 mm 3 m/s 752 mmHg 78%
    03:00 +23°C° 0 mm 4 m/s 752 mmHg 81%
    04:00 +23°C° 0 mm 4 m/s 752 mmHg 83%
    05:00 +23°C° 0 mm 4 m/s 752 mmHg 84%
    06:00 +23°C° 0 mm 4 m/s 752 mmHg 85%
    07:00 +26°C° 0 mm 4 m/s 753 mmHg 76%
    08:00 +27°C° 0 mm 5 m/s 753 mmHg 68%
    09:00 +28°C° 0 mm 5 m/s 753 mmHg 60%
    10:00 +30°C° 0 mm 5 m/s 753 mmHg 54%
    11:00 +32°C° 0 mm 6 m/s 752 mmHg 48%
    12:00 +34°C° 0 mm 6 m/s 752 mmHg 42%
    13:00 +34°C° 0 mm 6 m/s 752 mmHg 43%
    14:00 +34°C° 0 mm 7 m/s 751 mmHg 45%
    15:00 +33°C° 0 mm 7 m/s 751 mmHg 46%
    16:00 +32°C° 0 mm 7 m/s 751 mmHg 51%
    17:00 +30°C° 0 mm 7 m/s 751 mmHg 56%
    18:00 +29°C° 0 mm 7 m/s 750 mmHg 62%
    19:00 +28°C° 0 mm 6 m/s 751 mmHg 67%
    20:00 +27°C° 0 mm 6 m/s 751 mmHg 72%
    21:00 +26°C° 0 mm 5 m/s 751 mmHg 77%
    22:00 +26°C° 0 mm 5 m/s 751 mmHg 79%
    23:00 +25°C° 0 mm 5 m/s 751 mmHg 82%

    Mâine, 25 August, Duminică

    Timp Temperatura Precipitaţii Vânt Presiune Umiditate
    00:00 +25°C° 0 mm 4 m/s 751 mmHg 85%
    01:00 +25°C° 0 mm 4 m/s 751 mmHg 86%
    02:00 +25°C° 0 mm 4 m/s 751 mmHg 87%
    03:00 +25°C° 0 mm 4 m/s 751 mmHg 88%
    04:00 +25°C° 0 mm 4 m/s 751 mmHg 87%
    05:00 +25°C° 0 mm 4 m/s 751 mmHg 87%
    06:00 +25°C° 0 mm 4 m/s 751 mmHg 87%
    07:00 +26°C° 0 mm 4 m/s 751 mmHg 80%
    08:00 +27°C° 0 mm 4 m/s 751 mmHg 72%
    09:00 +28°C° 0 mm 4 m/s 752 mmHg 65%
    10:00 +29°C° 0 mm 5 m/s 751 mmHg 59%
    11:00 +32°C° 0 mm 5 m/s 751 mmHg 53%
    12:00 +33°C° 0 mm 5 m/s 751 mmHg 46%
    13:00 +33°C° 0 mm 6 m/s 750 mmHg 48%
    14:00 +33°C° 0 mm 6 m/s 750 mmHg 49%
    15:00 +33°C° 0 mm 6 m/s 750 mmHg 50%
    16:00 +32°C° 0 mm 6 m/s 750 mmHg 56%
    17:00 +30°C° 0 mm 6 m/s 750 mmHg 62%
    18:00 +29°C° 0 mm 6 m/s 749 mmHg 68%
    19:00 +28°C° 0 mm 6 m/s 750 mmHg 72%
    20:00 +27°C° 0 mm 5 m/s 750 mmHg 77%
    21:00 +26°C° 0 mm 5 m/s 751 mmHg 82%
    22:00 +26°C° 0 mm 4 m/s 751 mmHg 83%
    23:00 +26°C° 0 mm 3 m/s 750 mmHg 85%

    Poimâine, 26 August, Luni

    Timp Temperatura Precipitaţii Vânt Presiune Umiditate
    00:00 +25°C° 0 mm 2 m/s 750 mmHg 87%
    01:00 +25°C° 0 mm 3 m/s 750 mmHg 87%
    02:00 +25°C° 0 mm 4 m/s 749 mmHg 87%
    03:00 +25°C° 0 mm 4 m/s 749 mmHg 87%
    04:00 +25°C° 0 mm 4 m/s 749 mmHg 85%
    05:00 +26°C° 0 mm 4 m/s 749 mmHg 83%
    06:00 +26°C° 0 mm 3 m/s 749 mmHg 81%
    07:00 +28°C° 0 mm 3 m/s 749 mmHg 69%
    08:00 +30°C° 0 mm 3 m/s 749 mmHg 58%
    09:00 +33°C° 0 mm 3 m/s 749 mmHg 46%
    10:00 +35°C° 0 mm 4 m/s 749 mmHg 39%
    11:00 +37°C° 0 mm 5 m/s 749 mmHg 32%
    12:00 +41°C° 0 mm 6 m/s 748 mmHg 25%
    13:00 +41°C° 0 mm 6 m/s 748 mmHg 25%
    14:00 +41°C° 0 mm 6 m/s 747 mmHg 24%
    15:00 +41°C° 0 mm 7 m/s 747 mmHg 23%
    16:00 +38°C° 0.2 mm 7 m/s 748 mmHg 39%
    17:00 +33°C° 0.2 mm 7 m/s 749 mmHg 54%
    18:00 +29°C° 0.2 mm 7 m/s 750 mmHg 69%
    19:00 +28°C° 0.4 mm 8 m/s 750 mmHg 68%
    20:00 +28°C° 0.4 mm 9 m/s 750 mmHg 66%
    21:00 +28°C° 0.4 mm 10 m/s 750 mmHg 64%
    22:00 +29°C° 0 mm 9 m/s 750 mmHg 57%
    23:00 +30°C° 0 mm 7 m/s 750 mmHg 50%

    27 August, Marţi

    Timp Temperatura Precipitaţii Vânt Presiune Umiditate
    00:00 +32°C° 0 mm 5 m/s 749 mmHg 44%
    01:00 +30°C° 0 mm 4 m/s 749 mmHg 46%
    02:00 +30°C° 0 mm 3 m/s 749 mmHg 48%
    03:00 +29°C° 0 mm 2 m/s 748 mmHg 50%
    04:00 +28°C° 0 mm 3 m/s 748 mmHg 55%
    05:00 +28°C° 0 mm 4 m/s 748 mmHg 61%
    06:00 +27°C° 0 mm 5 m/s 748 mmHg 66%
    07:00 +28°C° 0 mm 5 m/s 749 mmHg 64%
    08:00 +29°C° 0 mm 5 m/s 749 mmHg 61%
    09:00 +30°C° 0 mm 5 m/s 750 mmHg 59%
    10:00 +32°C° 0 mm 5 m/s 750 mmHg 56%
    11:00 +32°C° 0 mm 4 m/s 750 mmHg 53%
    12:00 +33°C° 0 mm 4 m/s 750 mmHg 50%
    13:00 +33°C° 0 mm 4 m/s 749 mmHg 53%
    14:00 +32°C° 0 mm 4 m/s 749 mmHg 55%
    15:00 +32°C° 0 mm 5 m/s 748 mmHg 57%
    16:00 +30°C° 0 mm 4 m/s 749 mmHg 58%
    17:00 +30°C° 0 mm 3 m/s 749 mmHg 60%
    18:00 +29°C° 0 mm 3 m/s 749 mmHg 62%
    19:00 +29°C° 0.2 mm 2 m/s 750 mmHg 63%
    20:00 +28°C° 0.2 mm 2 m/s 750 mmHg 65%
    21:00 +28°C° 0.2 mm 2 m/s 751 mmHg 66%
    22:00 +28°C° 0.1 mm 2 m/s 751 mmHg 69%
    23:00 +27°C° 0.1 mm 2 m/s 751 mmHg 72%

    28 August, Miercuri

    Timp Temperatura Precipitaţii Vânt Presiune Umiditate
    00:00 +27°C° 0.1 mm 1 m/s 751 mmHg 75%
    01:00 +26°C° 0 mm 1 m/s 750 mmHg 77%
    02:00 +26°C° 0 mm 1 m/s 750 mmHg 79%
    03:00 +26°C° 0 mm 1 m/s 750 mmHg 82%
    04:00 +26°C° 0 mm 2 m/s 750 mmHg 83%
    05:00 +25°C° 0 mm 3 m/s 750 mmHg 85%
    06:00 +25°C° 0 mm 3 m/s 750 mmHg 87%
    07:00 +26°C° 0 mm 3 m/s 751 mmHg 78%
    08:00 +28°C° 0 mm 3 m/s 751 mmHg 69%
    09:00 +29°C° 0 mm 4 m/s 751 mmHg 60%
    10:00 +30°C° 0 mm 4 m/s 751 mmHg 54%
    11:00 +32°C° 0 mm 4 m/s 751 mmHg 48%
    12:00 +34°C° 0 mm 4 m/s 751 mmHg 42%
    13:00 +34°C° 0 mm 5 m/s 750 mmHg 41%
    14:00 +34°C° 0 mm 6 m/s 750 mmHg 41%
    15:00 +34°C° 0 mm 6 m/s 750 mmHg 40%
    16:00 +33°C° 0 mm 6 m/s 750 mmHg 45%
    17:00 +32°C° 0 mm 6 m/s 749 mmHg 49%
    18:00 +30°C° 0 mm 6 m/s 749 mmHg 53%
    19:00 +29°C° 0 mm 5 m/s 750 mmHg 56%
    20:00 +28°C° 0 mm 5 m/s 750 mmHg 59%
    21:00 +28°C° 0 mm 5 m/s 751 mmHg 62%
    22:00 +27°C° 0 mm 4 m/s 751 mmHg 63%
    23:00 +27°C° 0 mm 4 m/s 751 mmHg 64%

    29 August, Joi

    Timp Temperatura Precipitaţii Vânt Presiune Umiditate
    00:00 +27°C° 0 mm 3 m/s 751 mmHg 65%
    01:00 +26°C° 0 mm 3 m/s 750 mmHg 68%
    02:00 +26°C° 0 mm 3 m/s 750 mmHg 71%
    03:00 +26°C° 0 mm 4 m/s 750 mmHg 75%
    04:00 +25°C° 0 mm 4 m/s 750 mmHg 77%
    05:00 +25°C° 0 mm 4 m/s 750 mmHg 80%
    06:00 +25°C° 0 mm 4 m/s 751 mmHg 83%
    07:00 +26°C° 0 mm 4 m/s 751 mmHg 74%
    08:00 +28°C° 0 mm 4 m/s 751 mmHg 66%
    09:00 +29°C° 0 mm 4 m/s 751 mmHg 58%
    10:00 +30°C° 0 mm 5 m/s 751 mmHg 53%
    11:00 +33°C° 0 mm 6 m/s 751 mmHg 49%
    12:00 +34°C° 0 mm 7 m/s 751 mmHg 45%
    13:00 +34°C° 0 mm 7 m/s 751 mmHg 46%
    14:00 +34°C° 0 mm 7 m/s 750 mmHg 47%
    15:00 +33°C° 0 mm 7 m/s 750 mmHg 48%
    16:00 +32°C° 0 mm 7 m/s 750 mmHg 52%
    17:00 +30°C° 0 mm 7 m/s 750 mmHg 56%
    18:00 +29°C° 0 mm 8 m/s 750 mmHg 60%
    19:00 +28°C° 0.1 mm 6 m/s 750 mmHg 61%
    20:00 +28°C° 0.1 mm 5 m/s 751 mmHg 63%
    21:00 +28°C° 0.1 mm 3 m/s 751 mmHg 64%
    22:00 +27°C° 0 mm 3 m/s 751 mmHg 67%
    23:00 +27°C° 0 mm 3 m/s 751 mmHg 71%
    Arată mai mult